Weather History for KFLP - August, 2014

Change the Weather History Date:

Friday, August 29, 2014

  Actual Average (KHRO) Record (KHRO)
Temperature  
Mean Temperature 78 °F 76 °F  
Max Temperature 89 °F 87 °F 105 °F (1984)
Min Temperature 66 °F 64 °F 47 °F (1967)
Degree Days  
Heating Degree Days 0 0  
Month to date heating degree days 0  
Since 1 June heating degree days 6  
Since 1 July heating degree days 0  
Cooling Degree Days 12 11  
Month to date cooling degree days 376  
Year to date cooling degree days 1194  
Since 1 June cooling degree days 1055  
Growing Degree Days 28 (Base 50)    
Moisture  
Dew Point 63 °F    
Average Humidity 68    
Maximum Humidity 78    
Minimum Humidity 46    
Precipitation  
Precipitation 0.00 in 0.11 in 1.86 in (1917)
Month to date precipitation 3.35  
Year to date precipitation 28.73  
Snow  
Snow 0.00 in 0.00 in - ()
Month to date snowfall 0.0  
Since 1 June snowfall 0.0  
Since 1 July snowfall 0.0  
Snow Depth -    
Sea Level Pressure  
Sea Level Pressure 29.95 in    
Wind  
Wind Speed 3 mph (South)    
Max Wind Speed 30 mph    
Max Gust Speed 39 mph    
Visibility 10 miles    
Events Thunderstorm    
T = Trace of Precipitation, MM = Missing Value Source: NWS Daily Summary

Daily Weather History Graph

Daily Weather History Graph

Search for Another Location

Airport or City:

Trip Planner

Search our weather history database for the weather conditions in past years. The results will help you decide how hot, cold, wet, or windy it might be!

Date:

Astronomy

Aug. 29, 2014 Rise Set
Actual Time 6:39 AM CDT 7:42 PM CDT
Civil Twilight 6:13 AM CDT 8:08 PM CDT
Nautical Twilight 5:41 AM CDT 8:40 PM CDT
Astronomical Twilight 5:08 AM CDT 9:12 PM CDT
Moon 10:21 AM CDT (8/29) 9:48 PM CDT (8/29)
Length of Visible Light 13h 55m
Length of Day
13h 02m
Waxing Crescent, 15% of the Moon is Illuminated
Aug 29
Waxing Crescent
Sep 2
First Quarter
Sep 8
Full
Sep 15
Last Quarter
Sep 24
New

Hourly Weather History & Observations

Time (CDT) Temp. Heat Index Dew Point Humidity Pressure Visibility Wind Dir Wind Speed Gust Speed Precip Events Conditions
12:15 AM 75.2 °F - 59.0 °F 57% 29.97 in 10.0 mi Calm Calm - N/A   Clear
12:35 AM 73.4 °F - 59.0 °F 61% 29.97 in 10.0 mi Calm Calm - N/A   Clear
12:55 AM 71.6 °F - 59.0 °F 64% 29.98 in 10.0 mi Calm Calm - N/A   Clear
1:15 AM 73.4 °F - 59.0 °F 61% 29.97 in 10.0 mi East 3.5 mph - N/A   Clear
1:35 AM 71.6 °F - 59.0 °F 64% 29.96 in 10.0 mi ENE 4.6 mph - N/A   Clear
1:55 AM 71.6 °F - 59.0 °F 64% 29.96 in 10.0 mi Calm Calm - N/A   Clear
2:15 AM 69.8 °F - 59.0 °F 68% 29.96 in 10.0 mi Calm Calm - N/A   Clear
2:35 AM 69.8 °F - 59.0 °F 68% 29.95 in 10.0 mi East 3.5 mph - N/A   Clear
2:55 AM 69.8 °F - 59.0 °F 68% 29.95 in 10.0 mi Calm Calm - N/A   Clear
3:15 AM 69.8 °F - 59.0 °F 68% 29.95 in 10.0 mi Calm Calm - N/A   Clear
3:35 AM 69.8 °F - 59.0 °F 68% 29.94 in 10.0 mi Calm Calm - N/A   Clear
3:55 AM 68.0 °F - 59.0 °F 73% 29.94 in 10.0 mi Calm Calm - N/A   Clear
4:15 AM 69.8 °F - 59.0 °F 68% 29.94 in 10.0 mi Calm Calm - N/A   Clear
4:35 AM 68.0 °F - 59.0 °F 73% 29.94 in 10.0 mi Calm Calm - N/A   Clear
4:55 AM 68.0 °F - 59.0 °F 73% 29.94 in 10.0 mi Calm Calm - N/A   Clear
5:15 AM 66.2 °F - 59.0 °F 78% 29.94 in 10.0 mi Calm Calm - N/A   Clear
5:35 AM 66.2 °F - 59.0 °F 78% 29.94 in 10.0 mi Calm Calm - N/A   Clear
5:55 AM 66.2 °F - 59.0 °F 78% 29.94 in 10.0 mi Calm Calm - N/A   Clear
6:15 AM 66.2 °F - 59.0 °F 78% 29.95 in 10.0 mi Calm Calm - N/A   Clear
6:35 AM 66.2 °F - 59.0 °F 78% 29.95 in 10.0 mi Calm Calm - N/A   Clear
6:55 AM 66.2 °F - 59.0 °F 78% 29.96 in 6.0 mi Calm Calm - N/A   Clear
7:15 AM 66.2 °F - 59.0 °F 78% 29.96 in 10.0 mi Calm Calm - N/A   Clear
7:35 AM 68.0 °F - 60.8 °F 78% 29.96 in 10.0 mi Calm Calm - N/A   Clear
7:55 AM 69.8 °F - 60.8 °F 73% 29.96 in 10.0 mi Calm Calm - N/A   Clear
8:15 AM 69.8 °F - 60.8 °F 73% 29.96 in 10.0 mi ESE 3.5 mph - N/A   Clear
8:35 AM 71.6 °F - 60.8 °F 69% 29.96 in 10.0 mi Calm Calm - N/A   Clear
8:55 AM 75.2 °F - 62.6 °F 65% 29.96 in 10.0 mi Calm Calm - N/A   Clear
9:15 AM 78.8 °F - 62.6 °F 57% 29.96 in 10.0 mi SSE 3.5 mph - N/A   Clear
9:35 AM 80.6 °F 82.3 °F 64.4 °F 58% 29.96 in 10.0 mi SSW 4.6 mph - N/A   Clear
9:55 AM 80.6 °F 82.3 °F 64.4 °F 58% 29.96 in 10.0 mi South 3.5 mph - N/A   Clear
10:15 AM 82.4 °F 83.9 °F 64.4 °F 54% 29.96 in 10.0 mi South 6.9 mph - N/A   Clear
10:35 AM 82.4 °F 84.6 °F 66.2 °F 58% 29.96 in 10.0 mi South 6.9 mph - N/A   Clear
10:55 AM 82.4 °F 84.6 °F 66.2 °F 58% 29.96 in 10.0 mi South 9.2 mph - N/A   Clear
11:15 AM 82.4 °F 83.9 °F 64.4 °F 54% 29.95 in 10.0 mi SW 10.4 mph 18.4 mph N/A   Partly Cloudy
11:35 AM 82.4 °F 83.9 °F 64.4 °F 54% 29.95 in 10.0 mi South 5.8 mph - N/A   Partly Cloudy
11:55 AM 80.6 °F 82.3 °F 64.4 °F 58% 29.95 in 10.0 mi South 4.6 mph - N/A   Partly Cloudy
12:15 PM 82.4 °F 83.9 °F 64.4 °F 54% 29.95 in 10.0 mi SSW 9.2 mph - N/A   Clear
12:35 PM 80.6 °F 82.3 °F 64.4 °F 58% 29.95 in 10.0 mi South 6.9 mph - N/A   Scattered Clouds
12:55 PM 80.6 °F 82.3 °F 64.4 °F 58% 29.95 in 10.0 mi South 6.9 mph - N/A   Scattered Clouds
1:15 PM 84.2 °F 86.6 °F 66.2 °F 55% 29.94 in 10.0 mi SE 5.8 mph - N/A   Partly Cloudy
1:35 PM 86.0 °F 88.2 °F 66.2 °F 51% 29.91 in 10.0 mi SE 5.8 mph - N/A   Clear
1:55 PM 87.8 °F 90.4 °F 66.2 °F 49% 29.91 in 10.0 mi South 8.1 mph - N/A   Partly Cloudy
2:15 PM 89.6 °F 92.2 °F 66.2 °F 46% 29.90 in 10.0 mi SSW 9.2 mph 16.1 mph N/A   Partly Cloudy
2:35 PM 87.8 °F 90.4 °F 66.2 °F 49% 29.90 in 10.0 mi SW 9.2 mph - N/A   Clear
2:55 PM 86.0 °F 87.3 °F 64.4 °F 48% 29.91 in 10.0 mi SW 29.9 mph 39.1 mph N/A Thunderstorm Scattered Clouds
3:15 PM 75.2 °F - 62.6 °F 65% 29.93 in 5.0 mi SSW 12.7 mph 32.2 mph N/A Thunderstorm Thunderstorm
3:35 PM 71.6 °F - 62.6 °F 73% 29.92 in 10.0 mi South 6.9 mph - N/A Thunderstorm Thunderstorm
3:55 PM 71.6 °F - 64.4 °F 78% 29.92 in 10.0 mi SW 5.8 mph - N/A   Scattered Clouds
4:15 PM 73.4 °F - 64.4 °F 73% 29.92 in 10.0 mi SW 6.9 mph - N/A   Partly Cloudy
4:35 PM 75.2 °F - 64.4 °F 69% 29.92 in 10.0 mi SW 4.6 mph - N/A   Partly Cloudy
4:55 PM 73.4 °F - 66.2 °F 78% 29.93 in 10.0 mi South 5.8 mph - N/A   Clear
5:15 PM 73.4 °F - 66.2 °F 78% 29.91 in 10.0 mi SSW 5.8 mph - N/A   Partly Cloudy
5:35 PM 75.2 °F - 66.2 °F 73% 29.91 in 10.0 mi South 4.6 mph - N/A   Clear
5:55 PM 75.2 °F - 66.2 °F 73% 29.91 in 10.0 mi SW 3.5 mph - N/A   Clear
6:15 PM 75.2 °F - 66.2 °F 73% 29.91 in 10.0 mi South 4.6 mph - N/A   Mostly Cloudy
6:35 PM 75.2 °F - 64.4 °F 69% 29.92 in 10.0 mi SW 6.9 mph - N/A   Mostly Cloudy
6:55 PM 75.2 °F - 66.2 °F 73% 29.91 in 10.0 mi SW 5.8 mph - N/A   Partly Cloudy
7:15 PM 73.4 °F - 64.4 °F 73% 29.91 in 10.0 mi Calm Calm - N/A   Clear
7:35 PM 73.4 °F - 64.4 °F 73% 29.93 in 10.0 mi Calm Calm - N/A   Clear
7:55 PM 73.4 °F - 64.4 °F 73% 29.94 in 10.0 mi SSE 3.5 mph - N/A   Partly Cloudy
8:15 PM 73.4 °F - 64.4 °F 73% 29.95 in 10.0 mi SSE 3.5 mph - N/A   Partly Cloudy
8:35 PM 73.4 °F - 66.2 °F 78% 29.95 in 10.0 mi ESE 3.5 mph - N/A   Partly Cloudy
8:55 PM 73.4 °F - 66.2 °F 78% 29.96 in 10.0 mi Calm Calm - N/A   Scattered Clouds
9:15 PM 73.4 °F - 66.2 °F 78% 29.96 in 10.0 mi Calm Calm - N/A   Partly Cloudy
9:35 PM 73.4 °F - 66.2 °F 78% 29.97 in 10.0 mi Calm Calm - N/A   Clear
9:55 PM 73.4 °F - 66.2 °F 78% 29.97 in 10.0 mi Calm Calm - N/A   Partly Cloudy
10:15 PM 73.4 °F - 66.2 °F 78% 29.96 in 9.0 mi Calm Calm - N/A   Partly Cloudy
10:35 PM 73.4 °F - 66.2 °F 78% 29.97 in 10.0 mi SSE 3.5 mph - N/A   Partly Cloudy
10:55 PM 73.4 °F - 66.2 °F 78% 29.97 in 10.0 mi South 4.6 mph - N/A   Partly Cloudy
11:15 PM 73.4 °F - 66.2 °F 78% 29.98 in 10.0 mi South 4.6 mph - N/A   Scattered Clouds
11:35 PM 73.4 °F - 66.2 °F 78% 29.98 in 10.0 mi Calm Calm - N/A   Partly Cloudy
11:55 PM 73.4 °F - 66.2 °F 78% 29.98 in 10.0 mi Calm Calm - N/A   Clear